Temperature
16 18 19 19 19 19 18 18 19 19 17 17 18 18 18 16 16 16 16 15 14 13 13 15 15 16 16 16 15 15 14 14 13 12 12 11 11 11 10 10 10 9 9 9
17 18 19 18 16 16 17 17 18 18 16 16 17 18 17 16 16 16 16 15 14 13 13 14 14 15 15 15 15 14 14 13 13 12 12 12 11 11 11 10 10 10 9 9
18 18 16 16 16 16 17 17 18 18 17 16 16 18 17 16 15 14 14 14 13 13 13 13 14 14 14 14 14 14 13 13 13 12 12 12 11 11 11 10 10 10 9 9
18 17 15 16 17 17 17 17 17 16 17 19 17 19 18 17 16 16 15 14 13 12 12 13 13 14 14 13 13 13 13 12 12 12 12 11 11 10 10 10 10 9 9 9
17 15 15 16 17 16 17 15 15 16 17 17 17 18 20 17 17 17 16 14 13 12 12 12 13 13 13 13 13 12 12 12 12 11 11 11 10 10 10 9 9 9 9 8
17 16 16 17 15 15 14 15 14 15 16 17 18 18 19 18 18 18 16 14 13 12 12 12 12 12 12 12 12 12 12 11 11 11 11 10 10 9 9 9 8 8 8 8
16 16 16 15 15 14 15 17 18 18 17 18 16 16 19 19 18 18 17 15 13 12 11 11 11 12 12 12 11 11 11 11 11 10 10 9 9 8 8 8 7 7 7 7
16 17 16 15 17 17 16 17 18 18 19 19 15 16 19 16 15 15 16 15 13 11 11 11 11 11 11 11 11 11 11 10 10 9 9 8 8 8 7 7 7 7 6 6
17 17 14 14 15 17 16 16 17 18 16 17 18 18 18 15 14 13 14 13 12 11 11 11 11 11 11 11 10 10 10 10 9 9 8 8 7 7 7 6 6 6 6 6
18 17 15 14 14 13 15 16 16 17 17 17 18 18 19 17 16 14 14 13 12 11 10 10 10 10 10 10 10 10 9 9 8 8 8 7 7 6 6 6 6 6 5 5
17 17 15 14 15 16 14 15 16 17 17 17 18 19 18 18 17 15 15 14 12 11 10 10 10 10 10 10 9 9 9 8 8 7 7 6 6 6 6 5 5 5 5 5
16 17 17 16 14 14 16 16 16 17 17 16 17 18 16 16 16 15 14 13 12 10 10 9 9 9 9 9 9 8 8 8 7 7 6 6 6 5 5 5 5 4 4 4
15 16 16 15 14 13 14 14 15 16 16 16 16 18 15 14 14 13 13 12 10 10 9 9 9 9 8 8 8 8 7 7 6 6 6 5 5 5 5 4 4 4 4 4
15 16 17 18 18 16 14 14 13 15 16 16 16 18 17 15 14 13 12 11 10 9 9 8 8 8 8 8 7 7 6 6 6 5 5 5 5 4 4 4 4 4 3 3
14 16 16 16 15 14 15 15 13 14 16 17 17 17 18 17 16 14 12 10 9 8 8 8 8 8 7 7 7 6 6 5 5 5 4 4 4 4 4 4 3 3 3 2
14 15 14 14 13 13 13 14 14 14 15 16 16 16 17 15 14 12 11 9 8 8 7 8 8 7 7 6 6 6 5 5 4 4 4 4 4 3 3 3 3 3 2 2
13 14 14 15 12 12 13 14 14 14 14 15 15 16 15 12 11 11 10 9 8 8 7 7 7 7 6 6 5 5 4 4 4 4 4 3 3 3 3 2 2 1 1 1
13 13 14 13 12 12 16 14 14 14 15 14 14 13 12 12 10 9 9 8 8 7 7 7 6 6 5 5 4 4 4 4 3 3 3 3 2 2 2 1 1 0 -0 -1
12 13 13 12 13 14 15 12 12 12 13 14 13 12 10 8 8 8 7 7 7 7 7 6 6 5 5 4 4 4 3 3 3 3 2 2 2 1 1 0 -0 -1 -1 -2
9 11 12 11 11 12 15 12 10 12 13 12 11 10 8 8 10 10 7 7 7 7 6 6 5 4 4 3 3 3 3 2 2 2 2 1 1 0 -0 -1 -1 -2 -2 -3
9 9 11 11 11 14 13 9 10 12 14 10 9 9 8 9 10 8 7 6 6 6 5 5 4 4 3 3 3 2 2 2 1 1 1 1 0 -0 -1 -1 -2 -3 -3 -4
10 10 11 11 11 12 10 9 11 13 9 8 8 8 7 7 7 7 6 6 5 5 4 4 4 3 3 3 2 2 2 1 1 1 0 -0 -0 -1 -1 -2 -3 -3 -4 -4
11 12 12 12 13 11 9 10 10 9 8 8 7 7 7 7 6 6 5 5 4 4 4 3 3 3 3 2 2 1 1 0 0 -0 -0 -1 -1 -2 -2 -3 -4 -4 -4 -5
9 8 10 10 10 8 7 7 8 8 8 8 8 7 7 7 6 5 4 4 4 3 3 3 3 2 2 2 1 1 0 -0 -1 -1 -1 -2 -2 -2 -3 -4 -4 -5 -5 -6
10 8 9 9 9 7 6 7 7 8 8 7 7 7 6 6 5 4 4 4 3 3 3 2 2 2 2 1 1 1 -0 -1 -1 -2 -2 -3 -3 -3 -4 -4 -5 -5 -6 -6
8 8 9 11 10 9 8 8 7 7 7 7 6 6 5 5 4 4 3 3 3 3 2 2 2 1 1 0 0 -0 -1 -1 -2 -2 -3 -3 -4 -4 -4 -5 -5 -5 -6 -6
Wind_Speed
4 7 10 10 10 7 5 7 9 7 2 4 8 9 6 1 6 8 9 9 10 10 10 11 12 12 11 10 9 7 7 6 6 5 5 5 6 7 7 10 13 14 14 15
5 12 11 5 5 7 8 9 10 6 2 4 7 9 2 4 7 8 10 10 10 11 12 12 12 13 12 11 10 8 7 6 6 4 4 3 3 4 6 7 10 12 13 14
14 3 4 6 7 8 10 11 9 5 2 3 5 4 6 6 7 7 8 8 10 10 12 12 12 13 12 11 9 7 7 5 4 4 3 2 3 3 4 5 5 8 11 12
10 5 5 7 8 9 9 7 8 5 5 4 3 4 8 11 11 10 10 10 10 10 11 11 12 12 11 10 8 8 7 6 4 4 3 3 2 3 3 4 4 6 7 9
8 6 7 9 8 10 3 3 4 4 5 6 5 6 6 12 16 16 13 12 11 10 10 11 10 10 10 9 8 8 8 7 5 3 1 2 3 4 4 4 5 5 5 6
7 4 5 4 2 5 7 5 3 2 4 6 5 7 6 12 19 20 17 14 12 11 10 10 9 9 9 8 8 7 8 7 5 3 2 1 2 4 5 5 5 5 4 4
9 8 6 5 5 6 6 5 4 5 5 4 3 6 6 7 11 18 19 17 14 12 11 10 10 9 8 8 7 6 7 6 5 4 3 2 2 4 5 6 6 6 6 5
8 7 10 9 10 9 9 7 6 4 3 1 4 7 2 4 4 8 14 16 14 13 11 10 9 8 8 7 6 6 6 5 4 3 3 2 2 3 4 5 6 6 6 7
8 4 3 4 2 6 7 7 3 3 1 5 5 5 5 4 6 9 14 16 15 14 12 11 9 8 7 6 5 5 4 3 3 2 2 3 3 4 5 6 6 6 7 8
7 5 4 4 4 2 2 5 5 5 5 5 5 6 4 8 10 12 16 18 16 14 12 11 9 8 6 5 4 3 3 2 2 3 3 3 5 5 6 7 8 9 10 10
8 7 5 5 9 9 7 6 5 4 4 5 5 4 1 5 8 12 15 16 17 15 13 11 9 7 6 5 4 3 2 2 2 3 4 5 6 6 7 8 9 10 11 12
9 6 5 5 1 2 8 8 9 7 6 5 5 5 3 4 6 9 12 14 14 13 11 10 9 7 6 4 3 1 1 2 3 4 5 6 7 8 9 10 10 11 12 12
10 8 6 4 4 5 6 6 9 6 4 7 8 7 3 3 6 8 11 13 12 11 10 9 8 7 5 3 1 0 1 3 4 5 6 7 8 9 10 11 12 12 13 14
7 7 10 9 3 8 7 9 11 11 9 11 14 15 8 7 8 10 12 12 11 11 10 9 8 6 4 2 0 1 2 3 4 6 7 9 9 10 11 12 13 13 14 15
7 8 9 8 2 5 8 10 14 16 17 15 17 18 17 12 12 11 12 12 11 11 10 9 7 5 3 1 1 2 3 4 6 7 8 9 10 11 12 12 13 14 14 15
6 6 6 6 4 6 8 13 16 18 18 21 22 23 14 7 7 10 12 13 13 12 10 8 6 4 2 2 2 3 5 6 7 9 10 10 11 11 12 13 14 15 16 16
8 8 7 8 4 3 11 16 18 14 15 15 20 18 7 7 10 12 12 13 12 11 9 7 5 3 2 2 3 5 6 7 8 10 10 11 11 12 13 14 15 16 17 17
9 8 5 5 5 12 9 3 10 15 18 17 16 9 7 7 6 7 9 11 11 9 7 6 4 3 2 3 4 6 7 8 9 10 11 11 12 13 14 16 17 17 17 17
7 9 6 6 10 14 8 5 8 10 12 12 15 11 7 8 7 5 6 8 8 7 5 4 3 2 3 4 5 7 8 9 10 11 12 13 13 14 15 17 18 17 17 18
3 6 8 7 8 11 6 4 5 4 9 7 10 11 12 12 9 7 9 8 7 6 5 3 2 2 4 5 5 8 9 10 12 12 13 14 14 15 17 18 18 17 17 18
7 8 13 14 13 12 2 7 9 7 5 5 9 12 14 11 4 8 11 8 7 6 4 3 2 3 5 5 6 9 11 12 12 13 14 15 15 16 17 17 17 17 17 18
12 11 12 10 12 12 8 11 10 4 3 7 10 11 11 8 8 9 9 7 6 5 3 2 3 5 6 6 8 10 12 13 13 14 15 15 16 15 14 16 17 17 17 18
11 11 8 11 9 1 9 7 2 3 6 7 9 10 10 9 8 8 7 6 5 4 3 3 5 7 8 8 9 12 13 13 14 15 16 16 16 15 15 16 17 16 15 14
8 4 6 7 7 4 5 4 3 5 6 7 9 10 9 8 8 7 6 5 4 3 3 4 6 8 10 10 10 12 13 13 14 15 16 15 15 16 15 13 13 13 14 14
7 9 7 8 4 3 6 8 7 7 8 9 8 7 8 9 8 7 5 4 3 4 4 5 7 9 12 12 13 13 13 13 14 16 15 15 14 15 15 14 13 14 15 15
7 8 9 9 7 7 5 7 10 11 10 10 9 8 7 7 7 5 4 3 4 5 5 7 9 11 12 13 14 14 14 13 14 14 14 13 12 13 13 14 15 15 18 23
Wind_Direction
172 221 237 241 234 259 257 255 264 272 290 274 266 276 292 273 165 149 134 118 99 83 73 69 70 77 83 89 99 115 134 152 165 173 190 211 228 235 239 243 247 247 247 246
207 242 254 250 213 220 235 252 263 269 214 266 283 283 263 160 155 147 138 124 113 105 91 79 78 78 79 83 89 100 115 137 159 172 185 212 240 253 258 255 254 253 252 251
230 245 150 173 188 210 229 240 256 268 267 227 286 243 170 156 146 142 139 129 121 113 105 95 86 82 81 78 79 89 100 120 146 166 179 196 232 253 254 258 262 262 259 256
238 228 187 213 222 221 245 237 239 243 264 258 270 260 183 173 171 167 158 148 134 124 115 106 98 89 83 81 83 87 93 102 121 155 186 215 254 282 301 302 290 285 272 263
221 195 198 220 231 209 221 115 175 220 249 270 229 245 198 179 188 184 173 160 148 137 127 116 107 101 94 90 89 90 92 92 100 124 164 243 279 300 308 308 300 298 288 273
242 197 215 213 120 175 142 127 115 168 226 250 219 223 219 193 200 187 178 171 162 151 140 128 120 115 106 100 94 93 93 89 89 94 92 346 320 317 318 319 317 313 304 291
229 224 207 170 147 155 184 206 230 222 217 234 158 232 250 187 196 192 183 177 170 163 156 147 141 132 121 109 101 98 94 88 83 81 68 37 344 324 318 320 318 314 309 303
215 218 194 194 210 195 196 219 239 261 254 239 195 240 243 136 172 197 189 179 173 171 167 159 151 142 131 120 112 104 95 87 75 63 46 19 347 322 318 315 310 306 303 302
214 209 122 174 194 191 177 208 249 265 281 271 244 256 261 174 195 193 188 182 181 178 173 166 157 149 139 130 118 106 98 85 62 36 8 349 334 320 314 309 302 298 297 299
212 197 151 138 136 49 245 161 167 210 242 252 252 248 236 194 194 184 185 186 183 178 174 168 163 155 145 135 123 109 90 64 30 2 350 329 321 316 309 303 301 300 300 298
206 205 163 179 206 197 166 183 204 205 245 253 263 249 195 203 189 185 186 186 182 179 176 172 165 157 149 142 131 110 79 32 356 342 331 321 318 314 308 302 301 301 300 299
193 207 206 195 131 273 217 209 196 217 225 230 263 271 112 204 195 190 183 179 177 175 173 169 164 160 157 149 134 98 33 351 338 329 321 317 313 309 305 303 303 302 300 298
163 189 190 184 189 186 210 209 212 226 237 228 241 256 123 187 195 192 184 176 174 172 169 168 166 166 162 156 145 31 346 332 327 322 315 313 311 309 307 306 305 302 300 298
175 200 224 238 220 172 194 201 200 205 228 239 240 257 240 217 207 193 188 181 175 170 170 170 167 166 162 164 206 316 319 320 318 313 310 309 310 309 307 305 302 301 299 297
194 224 232 250 226 186 210 207 201 213 232 248 258 260 262 249 228 210 192 180 173 170 170 170 170 169 172 202 269 301 308 311 310 306 304 304 305 304 302 301 300 300 298 295
200 221 213 234 218 223 240 235 224 227 239 248 260 266 272 261 219 200 190 182 180 177 174 171 170 177 200 253 287 297 301 304 303 300 300 302 301 300 300 300 301 300 298 296
185 188 203 243 192 232 250 237 228 226 227 237 250 261 239 202 201 198 189 183 181 176 172 172 177 190 222 262 284 291 297 299 298 297 297 298 299 299 300 301 300 300 299 299
179 187 213 224 191 240 255 189 224 234 243 237 245 250 207 204 181 181 181 178 173 168 167 171 179 200 234 265 281 288 291 293 294 296 298 300 300 299 301 301 301 301 301 299
202 184 188 201 240 260 257 211 195 213 248 234 232 229 189 147 140 162 172 172 165 161 161 165 180 213 250 273 284 288 289 292 294 297 300 302 302 300 301 301 302 303 302 300
179 207 206 203 230 248 248 157 161 183 259 217 205 191 166 162 184 181 162 155 148 146 151 163 185 233 262 277 287 287 291 295 298 301 302 302 301 300 299 300 302 302 300 299
171 193 215 223 237 256 209 142 155 210 269 150 177 172 169 179 171 133 144 147 150 153 159 175 222 255 271 284 287 287 293 297 302 302 300 299 299 300 300 300 300 301 300 298
181 187 205 213 230 244 160 159 195 231 107 157 164 166 165 145 122 132 143 147 154 163 179 213 254 273 282 286 286 289 295 302 304 302 299 299 300 301 299 299 300 301 300 300
206 202 199 205 224 285 165 190 198 144 164 166 163 160 153 147 150 150 155 160 169 186 211 244 268 282 288 290 291 292 300 305 304 301 299 300 302 301 300 300 301 302 301 300
213 203 201 222 237 217 208 211 195 181 171 157 152 150 154 153 155 158 162 172 189 213 242 262 276 286 293 300 299 295 300 303 301 299 301 302 302 302 302 300 297 298 299 299
194 177 202 230 233 214 221 211 187 160 145 138 134 141 149 149 157 166 175 192 216 243 260 270 278 287 294 301 301 301 302 302 300 300 300 301 301 300 301 299 296 295 292 290
187 187 198 227 206 199 204 185 172 159 155 150 140 137 143 154 160 170 192 216 242 262 274 279 284 289 295 300 300 302 303 301 299 299 300 301 301 301 300 301 301 290 287 293
Height
1538 1538 1534 1532 1533 1533 1534 1534 1532 1529 1532 1533 1527 1524 1524 1526 1527 1527 1528 1529 1529 1527 1526 1525 1524 1523 1523 1524 1524 1525 1526 1527 1529 1530 1531 1532 1533 1534 1534 1535 1535 1535 1535 1534
1536 1533 1529 1532 1535 1536 1535 1534 1530 1528 1533 1532 1526 1523 1523 1525 1526 1527 1528 1529 1529 1529 1528 1527 1527 1526 1526 1526 1527 1527 1528 1528 1529 1530 1531 1532 1532 1532 1532 1532 1531 1531 1530 1530
1529 1528 1531 1533 1534 1535 1533 1531 1527 1528 1530 1531 1530 1519 1521 1524 1526 1528 1529 1529 1530 1530 1529 1529 1529 1528 1528 1528 1529 1529 1529 1530 1530 1531 1531 1531 1531 1531 1530 1530 1529 1528 1526 1525
1526 1527 1531 1530 1529 1529 1528 1526 1529 1531 1529 1522 1528 1517 1516 1519 1523 1526 1528 1529 1530 1530 1530 1530 1530 1530 1530 1530 1530 1531 1531 1531 1531 1531 1531 1531 1530 1530 1529 1527 1526 1525 1523 1522
1522 1526 1527 1527 1524 1526 1525 1529 1530 1530 1528 1525 1524 1521 1508 1516 1518 1521 1525 1527 1529 1529 1530 1530 1530 1531 1531 1531 1531 1532 1532 1532 1531 1531 1531 1530 1529 1528 1526 1525 1523 1522 1520 1518
1519 1523 1523 1521 1524 1526 1529 1530 1532 1532 1528 1524 1517 1518 1505 1508 1508 1513 1520 1525 1527 1528 1529 1530 1530 1531 1531 1532 1532 1532 1532 1531 1531 1530 1529 1528 1527 1525 1524 1522 1520 1518 1517 1515
1519 1518 1520 1521 1523 1528 1527 1524 1524 1523 1522 1514 1520 1519 1502 1499 1503 1508 1515 1521 1525 1527 1528 1529 1530 1530 1531 1531 1531 1531 1531 1531 1530 1529 1527 1526 1525 1523 1521 1519 1517 1515 1513 1511
1514 1511 1514 1516 1515 1517 1520 1518 1519 1518 1513 1511 1521 1514 1497 1503 1507 1509 1513 1518 1522 1524 1526 1527 1528 1529 1530 1530 1530 1530 1530 1529 1528 1527 1525 1524 1522 1520 1518 1516 1513 1511 1509 1506
1506 1508 1514 1515 1516 1514 1518 1517 1515 1515 1520 1517 1505 1503 1498 1504 1506 1509 1511 1515 1518 1521 1523 1525 1526 1527 1528 1528 1528 1528 1528 1527 1526 1524 1523 1521 1519 1517 1514 1512 1509 1507 1504 1501
1501 1506 1512 1515 1516 1518 1515 1513 1518 1516 1516 1513 1504 1501 1493 1497 1500 1504 1507 1510 1514 1518 1520 1522 1523 1524 1525 1526 1526 1526 1525 1524 1523 1521 1519 1517 1515 1513 1510 1508 1505 1502 1499 1496
1500 1502 1512 1514 1512 1509 1516 1517 1512 1510 1511 1510 1507 1496 1489 1491 1494 1498 1502 1506 1510 1514 1516 1519 1520 1522 1523 1523 1523 1523 1522 1521 1520 1518 1516 1514 1511 1509 1506 1503 1500 1497 1493 1490
1498 1498 1501 1506 1510 1510 1507 1505 1507 1509 1509 1509 1504 1496 1491 1493 1494 1497 1500 1504 1508 1511 1514 1516 1518 1519 1520 1520 1520 1520 1519 1518 1516 1514 1512 1510 1507 1504 1501 1498 1495 1491 1487 1483
1496 1497 1501 1505 1511 1512 1508 1507 1506 1504 1505 1505 1505 1494 1493 1494 1495 1497 1499 1502 1505 1508 1510 1513 1515 1516 1517 1517 1517 1516 1515 1514 1512 1510 1508 1505 1503 1499 1496 1493 1489 1484 1480 1475
1492 1491 1490 1491 1488 1494 1501 1504 1505 1504 1502 1498 1495 1486 1487 1491 1492 1495 1497 1500 1502 1505 1507 1510 1512 1513 1514 1514 1514 1513 1511 1510 1508 1506 1504 1501 1498 1494 1491 1487 1482 1478 1473 1468
1491 1488 1487 1487 1491 1493 1492 1494 1499 1498 1490 1489 1482 1481 1479 1483 1487 1491 1494 1497 1500 1502 1505 1507 1509 1510 1510 1510 1510 1509 1507 1506 1504 1502 1499 1496 1492 1489 1484 1480 1475 1470 1465 1459
1488 1487 1489 1491 1494 1494 1494 1490 1490 1491 1487 1483 1480 1477 1475 1480 1484 1488 1491 1493 1496 1499 1502 1504 1505 1506 1507 1507 1506 1505 1503 1502 1499 1497 1494 1490 1486 1482 1478 1473 1468 1462 1456 1451
1485 1486 1489 1485 1494 1495 1488 1479 1481 1481 1478 1477 1475 1471 1475 1480 1482 1483 1486 1490 1493 1496 1498 1501 1502 1503 1503 1503 1502 1500 1499 1497 1494 1491 1488 1484 1480 1475 1471 1465 1460 1454 1448 1442
1482 1483 1484 1485 1493 1492 1467 1470 1471 1471 1469 1470 1470 1471 1475 1477 1479 1482 1485 1488 1490 1493 1496 1498 1499 1499 1499 1499 1498 1496 1494 1492 1489 1486 1482 1478 1473 1468 1463 1458 1452 1446 1440 1434
1479 1480 1483 1487 1482 1471 1466 1469 1470 1470 1465 1464 1466 1469 1474 1477 1479 1482 1484 1486 1488 1491 1493 1495 1495 1496 1495 1495 1493 1492 1489 1487 1484 1480 1476 1472 1467 1461 1455 1450 1444 1438 1431 1425
1482 1479 1479 1484 1482 1473 1458 1464 1466 1468 1463 1461 1463 1466 1471 1475 1476 1478 1481 1484 1486 1488 1490 1491 1492 1492 1492 1491 1489 1487 1484 1481 1478 1474 1469 1465 1460 1454 1448 1442 1436 1430 1423 1416
1478 1478 1475 1474 1472 1458 1458 1464 1466 1467 1456 1459 1460 1464 1468 1471 1472 1476 1479 1482 1484 1486 1488 1488 1489 1488 1488 1486 1484 1481 1479 1475 1471 1467 1462 1457 1452 1447 1441 1434 1428 1421 1415 1407
1461 1466 1467 1466 1467 1460 1458 1462 1460 1455 1457 1457 1460 1463 1467 1470 1472 1474 1477 1480 1482 1484 1485 1485 1485 1485 1483 1481 1479 1476 1472 1469 1464 1460 1455 1450 1445 1439 1432 1426 1420 1414 1407 1400
1452 1450 1450 1452 1450 1450 1452 1453 1453 1454 1456 1457 1459 1462 1465 1468 1471 1473 1476 1478 1480 1481 1482 1482 1481 1480 1478 1476 1473 1470 1466 1461 1457 1452 1447 1442 1437 1431 1425 1419 1412 1406 1400 1393
1448 1450 1450 1450 1448 1449 1450 1451 1451 1453 1455 1456 1458 1461 1464 1467 1469 1472 1474 1476 1477 1478 1478 1478 1477 1475 1473 1471 1467 1463 1459 1454 1449 1444 1439 1434 1428 1423 1417 1411 1405 1399 1393 1386
1438 1445 1445 1444 1446 1448 1447 1448 1449 1451 1453 1456 1458 1461 1463 1465 1468 1470 1472 1473 1474 1475 1474 1473 1472 1469 1467 1464 1460 1457 1452 1447 1442 1437 1432 1426 1421 1415 1409 1403 1398 1392 1386 1381
1438 1439 1440 1437 1439 1441 1442 1443 1446 1449 1451 1454 1457 1459 1462 1464 1466 1468 1469 1470 1471 1471 1470 1468 1466 1464 1460 1457 1453 1450 1445 1440 1434 1429 1424 1419 1413 1408 1402 1395 1389 1383 1378 1372